Location: Fuglau
(48.6333°N, 15.5500°E)
Time: 15:52:01
(UTC+00:00)

STARLINK-24 - Pass Details

Date: 27 February 2020
Orbit: 527 x 529 km, 53.0° (Epoch: 06 April)

Event Time Altitude Azimuth Distance (km) Brightness Sun altitude
Rises 16:57:03 0° 266° (W) 2,661 10.1 -4.0°
Reaches altitude 10° 16:59:18 10° 272° (W) 1,774 8.0 -4.4°
Maximum altitude 17:03:14 50° 349° (NNW) 682 4.2 -5.1°
Drops below altitude 10° 17:07:10 10° 65° (ENE) 1,779 5.6 -5.7°
Enters shadow 17:07:55 - 68° (ENE) 2,071 5.9 -5.8°
